Tracking 35237 objects as of 5-Sep-2026
HD Live streaming from Space Station
objects crossing your sky now

SAGANSAT0


SAGANSAT0 is no longer on orbit
SAGANSAT0 is classified as:


NORAD ID: 60958
Int'l Code: 1998-067WY
Launch date: November 20, 1998
Source: (TBD)
Launch site: TYURATAM MISSILE AND SPACE COMPLEX (TTMTR)
Decay date: 2024-12-18

Uplink (MHz): 145.825
Downlink (MHz): 145.825/437.050
Beacon (MHz): 437.050
Mode: 1k2AFSK 4k8GMSK APRS CW
Call sign: JG6YPC
Status: Inactive

Your satellite tracking list
Your tracking list is empty




NASA's NSSDC Master Catalog

Two Line Element Set (TLE):
1 60958U 98067WY  24350.27755697  .12166022  12503-4  66954-3 0  9998
2 60958  51.6051 121.8277 0006746 294.3496  65.6826 16.42103511 16943
Source of the keplerian elements: AFSPC